Погода в Майском

Россия / Республика Бурятия     54°35′44″N   110°47′54″E
темп.,
°C
ветер,
м/с
пор.,
м/с
влажн.,
%
обл.,
%
осадки,
мм/ч
давл.,
гПа
погр.,
м
7 мая, пт
пт723:00+2юз1161100 0.0 100729
02:00+1вюв1167100 0.0 100620
05:000в1286100 0.4 1007129
08:00+2ю1183100 1.6 1008317
11:00+9в254283 0.1 10071658
14:00+11св4533100 0.1 10072337
17:00+11св563257 0.0 10082023
20:00+6всв36491 0.0 1011238
8 мая, сб
сб823:00+2св11671 0.0 101312
02:000вюв10772 0.0 101510
05:00−2в11855 0.0 101510
08:00+4всв11605 0.0 1014432
11:00+9ююз11416 0.0 10111120
14:00+13ю333056 0.0 10072119
17:00+13зюз332898 0.0 10062385
20:00+8с224193 0.0 100825
9 мая, вс
вс923:00+4ю116061 0.0 101019
02:00+2ю11678 0.0 101219
05:000ююв11729 0.0 101210
08:00+5ююз125557 0.0 1012585
11:00+10юз2239100 0.0 10101333
14:00+12ююз222963 0.0 10081905
17:00+13зюз323429 0.0 10072081
20:00+9ю23489 0.0 100841
10 мая, пн
пн1023:00+4ююв117570 0.3 101115
02:00+3св227516 0.3 101223
05:00+2св2275100 0.0 101220
08:00+8св354891 0.0 1010544
11:00+13вюв3435100 0.0 10082013
14:00+15всв352898 0.0 10062587
17:00+15св352998 0.0 10062465
20:00+11вюв114589 0.0 100713
11 мая, вт
вт1123:00+7св1259100 0.1 100918
02:00+5вюв117099 0.1 101110
05:00+4ю1174100 0.0 101110
08:00+8ююз225994 0.0 1010399
11:00+13ююз4343100 0.0 1008919
14:00+15ююз553591 0.1 10062050
17:00+15зюз5530100 0.0 10052014
20:00+10ююз4751100 0.0 1006272